Weather History for Plymouth, NH

Change the Weather History Date:

Wednesday, December 19, 2012

  Actual Average (KLCI) Record (KLCI)
Temperature  
Mean Temperature 36 °F -  
Max Temperature 38 °F 32 °F 46 °F (1997)
Min Temperature 35 °F 17 °F -4 °F (1985)
Degree Days  
Heating Degree Days 28    
Moisture  
Dew Point 31 °F    
Average Humidity 81    
Maximum Humidity 95    
Minimum Humidity 73    
Precipitation  
Precipitation 0.04 in - - ()
Sea Level Pressure  
Sea Level Pressure 29.70 in    
Wind  
Wind Speed 10 mph (WNW)    
Max Wind Speed 16 mph    
Max Gust Speed 25 mph    
Visibility 10 miles    
Events Rain    
Averages and records for this station are not official NWS values.
T = Trace of Precipitation, MM = Missing Value Source: NWS Daily Summary

Daily Weather History Graph

Daily Weather History Graph

Search for Another Location

Airport:

Trip Planner

Search our weather history database for the weather conditions in past years. The results will help you decide how hot, cold, wet, or windy it might be!

Date:

Astronomy

Dec. 19, 2012 Rise Set
Actual Time 7:16 AM EST 4:11 PM EST
Civil Twilight 6:43 AM EST 4:44 PM EST
Nautical Twilight 6:07 AM EST 5:21 PM EST
Astronomical Twilight 5:32 AM EST 5:56 PM EST
Moon 11:11 AM EST (12/19) 11:50 PM EST (12/19)
Length of Visible Light 10h 00m
Length of Day
8h 54m
Waxing Crescent, 45% of the Moon is Illuminated
Dec 19
Waxing Crescent
Dec 20
First Quarter
Dec 28
Full
Jan 4
Last Quarter
Jan 11
New

Hourly Weather History & Observations

Time (EST) Temp. Windchill Dew Point Humidity Pressure Visibility Wind Dir Wind Speed Gust Speed Precip Events Conditions
12:15 AM 38.1 °F 33.7 °F 36.5 °F 94% 29.44 in 10.0 mi WNW 5.8 mph - N/A Rain Light Rain
12:35 AM 37.6 °F 33.1 °F 36.1 °F 95% 29.44 in 10.0 mi WNW 5.8 mph - N/A Rain Rain
12:55 AM 37.4 °F 32.1 °F 36.0 °F 95% 29.44 in 7.0 mi WNW 6.9 mph - N/A Rain Rain
1:15 AM 37.9 °F 34.4 °F 36.1 °F 93% 29.44 in 10.0 mi WNW 4.6 mph - N/A Rain Rain
1:35 AM 37.6 °F 33.1 °F 35.8 °F 93% 29.45 in 10.0 mi NW 5.8 mph - N/A   Drizzle
1:55 AM 37.4 °F 32.1 °F 35.8 °F 94% 29.45 in 10.0 mi West 6.9 mph - N/A   Light Drizzle
2:15 AM 37.8 °F 32.5 °F 35.2 °F 91% 29.45 in 10.0 mi West 6.9 mph 17.3 mph N/A   Overcast
2:35 AM 37.4 °F 32.1 °F 34.9 °F 91% 29.46 in 10.0 mi WNW 6.9 mph - N/A   Overcast
2:55 AM 37.6 °F 30.5 °F 34.5 °F 89% 29.46 in 10.0 mi West 10.4 mph 17.3 mph N/A   Overcast
3:15 AM 37.4 °F 30.3 °F 34.2 °F 88% 29.47 in 10.0 mi West 10.4 mph - N/A   Overcast
3:35 AM 37.4 °F 30.8 °F 34.2 °F 88% 29.47 in 10.0 mi West 9.2 mph - N/A   Overcast
3:55 AM 37.4 °F 32.1 °F 34.0 °F 87% 29.48 in 10.0 mi West 6.9 mph - N/A   Overcast
4:15 AM 37.6 °F 29.6 °F 33.1 °F 84% 29.48 in 10.0 mi West 12.7 mph 17.3 mph N/A   Overcast
4:35 AM 36.7 °F 28.9 °F 32.7 °F 86% 29.49 in 10.0 mi WNW 11.5 mph - N/A   Overcast
4:55 AM 36.5 °F 29.7 °F 32.2 °F 84% 29.49 in 10.0 mi NW 9.2 mph - N/A   Overcast
5:15 AM 36.5 °F 28.7 °F 32.0 °F 84% 29.50 in 10.0 mi NW 11.5 mph 16.1 mph N/A   Overcast
5:35 AM 36.1 °F 26.9 °F 31.8 °F 84% 29.51 in 10.0 mi WNW 15.0 mph 19.6 mph N/A   Overcast
5:55 AM 36.0 °F 27.5 °F 31.8 °F 85% 29.52 in 10.0 mi WNW 12.7 mph 18.4 mph N/A   Overcast
6:15 AM 35.6 °F 27.1 °F 31.8 °F 86% 29.53 in 10.0 mi WNW 12.7 mph 18.4 mph N/A   Overcast
6:35 AM 35.6 °F 26.6 °F 31.5 °F 85% 29.54 in 10.0 mi WNW 13.8 mph 25.3 mph N/A   Overcast
6:55 AM 35.6 °F 27.1 °F 31.1 °F 84% 29.55 in 10.0 mi WNW 12.7 mph - N/A   Overcast
7:15 AM 35.6 °F 26.6 °F 31.1 °F 84% 29.56 in 10.0 mi WNW 13.8 mph 20.7 mph N/A   Overcast
7:35 AM 35.6 °F 25.9 °F 30.9 °F 83% 29.56 in 10.0 mi WNW 16.1 mph 20.7 mph N/A   Overcast
7:55 AM 35.6 °F 25.9 °F 30.9 °F 83% 29.58 in 10.0 mi WNW 16.1 mph 23.0 mph N/A   Overcast
8:15 AM 35.8 °F 26.9 °F 30.7 °F 82% 29.59 in 10.0 mi WNW 13.8 mph - N/A   Overcast
8:35 AM 36.1 °F 27.3 °F 30.2 °F 79% 29.59 in 10.0 mi WNW 13.8 mph 24.2 mph N/A   Overcast
8:55 AM 36.5 °F 27.8 °F 30.4 °F 78% 29.60 in 10.0 mi WNW 13.8 mph 23.0 mph N/A   Scattered Clouds
9:15 AM 37.0 °F 28.9 °F 30.2 °F 76% 29.61 in 10.0 mi WNW 12.7 mph 20.7 mph N/A   Clear
9:35 AM 37.4 °F 29.8 °F 30.4 °F 76% 29.62 in 10.0 mi West 11.5 mph - N/A   Scattered Clouds
9:55 AM 37.8 °F 30.7 °F 30.6 °F 75% 29.63 in 10.0 mi WNW 10.4 mph 20.7 mph N/A   Clear
10:15 AM 37.9 °F 30.0 °F 30.4 °F 74% 29.63 in 10.0 mi WNW 12.7 mph 24.2 mph N/A   Clear
10:35 AM 37.9 °F 29.6 °F 30.9 °F 76% 29.63 in 10.0 mi WNW 13.8 mph 18.4 mph N/A   Scattered Clouds
10:55 AM 37.8 °F 29.8 °F 30.6 °F 75% 29.64 in 10.0 mi West 12.7 mph 18.4 mph N/A   Scattered Clouds
11:15 AM 37.8 °F 29.8 °F 30.7 °F 76% 29.65 in 10.0 mi WNW 12.7 mph 17.3 mph N/A   Overcast
11:35 AM 38.3 °F 30.5 °F 30.7 °F 74% 29.65 in 10.0 mi WNW 12.7 mph 18.4 mph N/A   Overcast
11:55 AM 38.3 °F 30.9 °F 30.4 °F 73% 29.67 in 10.0 mi West 11.5 mph 18.4 mph N/A   Overcast
12:15 PM 38.3 °F 30.5 °F 30.7 °F 74% 29.68 in 10.0 mi WNW 12.7 mph 18.4 mph N/A   Overcast
12:35 PM 38.1 °F 30.2 °F 30.7 °F 75% 29.69 in 10.0 mi West 12.7 mph 21.9 mph N/A   Overcast
12:55 PM 37.9 °F 30.9 °F 30.9 °F 76% 29.70 in 10.0 mi WNW 10.4 mph - N/A   Overcast
1:15 PM 37.9 °F 30.5 °F 31.5 °F 77% 29.71 in 10.0 mi WNW 11.5 mph 17.3 mph N/A   Overcast
1:35 PM 37.6 °F 30.0 °F 31.1 °F 77% 29.72 in 10.0 mi WNW 11.5 mph 19.6 mph N/A   Overcast
1:55 PM 37.4 °F 28.2 °F 31.1 °F 78% 29.73 in 10.0 mi WNW 16.1 mph 20.7 mph N/A   Overcast
2:15 PM 37.4 °F 28.9 °F 31.3 °F 79% 29.74 in 10.0 mi WNW 13.8 mph 19.6 mph N/A   Overcast
2:35 PM 37.6 °F 30.0 °F 30.9 °F 77% 29.75 in 10.0 mi WNW 11.5 mph - N/A   Overcast
2:55 PM 37.6 °F 29.6 °F 30.9 °F 77% 29.76 in 10.0 mi WNW 12.7 mph 17.3 mph N/A   Overcast
3:15 PM 37.4 °F 29.8 °F 31.1 °F 78% 29.78 in 10.0 mi WNW 11.5 mph - N/A   Overcast
3:35 PM 37.0 °F 29.3 °F 31.1 °F 79% 29.79 in 10.0 mi WNW 11.5 mph 20.7 mph N/A   Overcast
3:55 PM 37.0 °F 28.5 °F 30.9 °F 79% 29.81 in 10.0 mi WNW 13.8 mph 18.4 mph N/A   Overcast
4:15 PM 36.5 °F 28.7 °F 31.3 °F 81% 29.82 in 10.0 mi WNW 11.5 mph - N/A   Overcast
4:35 PM 36.0 °F 28.5 °F 31.8 °F 85% 29.84 in 10.0 mi WNW 10.4 mph 17.3 mph N/A   Light Drizzle
4:55 PM 36.0 °F 29.0 °F 31.3 °F 83% 29.86 in 10.0 mi WNW 9.2 mph 16.1 mph N/A Rain Light Rain
5:15 PM 35.8 °F 28.8 °F 31.1 °F 83% 29.87 in 10.0 mi WNW 9.2 mph - N/A Rain Light Rain
5:35 PM 36.0 °F 29.0 °F 30.9 °F 82% 29.88 in 10.0 mi NW 9.2 mph - N/A   Overcast
5:55 PM 36.0 °F 28.0 °F 30.2 °F 80% 29.88 in 10.0 mi NW 11.5 mph - N/A   Overcast
6:15 PM 36.0 °F 28.0 °F 29.8 °F 78% 29.89 in 10.0 mi WNW 11.5 mph 17.3 mph N/A   Overcast
6:35 PM 36.1 °F 28.7 °F 29.8 °F 78% 29.90 in 10.0 mi WNW 10.4 mph 18.4 mph N/A   Overcast
6:55 PM 36.0 °F 29.6 °F 29.8 °F 78% 29.91 in 10.0 mi WNW 8.1 mph - N/A   Overcast
7:15 PM 36.1 °F 28.2 °F 29.8 °F 78% 29.93 in 10.0 mi NW 11.5 mph - N/A   Overcast
7:35 PM 36.0 °F 30.3 °F 29.8 °F 78% 29.94 in 10.0 mi NW 6.9 mph - N/A   Overcast
7:55 PM 36.1 °F 30.6 °F 29.7 °F 77% 29.95 in 10.0 mi WNW 6.9 mph - N/A   Overcast
8:15 PM 36.3 °F 28.4 °F 29.7 °F 77% 29.96 in 10.0 mi NW 11.5 mph 18.4 mph N/A   Overcast
8:35 PM 36.5 °F 28.2 °F 29.7 °F 76% 29.97 in 10.0 mi NW 12.7 mph 17.3 mph N/A   Overcast
8:55 PM 36.5 °F 30.3 °F 29.7 °F 76% 29.97 in 10.0 mi NW 8.1 mph - N/A   Overcast
9:15 PM 36.7 °F 30.5 °F 29.8 °F 76% 29.98 in 10.0 mi NW 8.1 mph - N/A   Overcast
9:35 PM 36.5 °F 30.3 °F 29.8 °F 77% 29.98 in 10.0 mi WNW 8.1 mph - N/A   Overcast
9:55 PM 36.9 °F 29.6 °F 29.5 °F 75% 29.99 in 10.0 mi NW 10.4 mph 19.6 mph N/A   Overcast
10:15 PM 36.7 °F 30.5 °F 29.5 °F 75% 29.99 in 10.0 mi WNW 8.1 mph - N/A   Overcast
10:35 PM 36.5 °F 29.7 °F 29.7 °F 76% 30.00 in 10.0 mi WNW 9.2 mph - N/A   Mostly Cloudy
10:55 PM 36.1 °F 30.6 °F 29.7 °F 77% 30.00 in 10.0 mi WNW 6.9 mph - N/A   Mostly Cloudy
11:15 PM 36.1 °F 28.2 °F 29.7 °F 77% 30.01 in 10.0 mi WNW 11.5 mph - N/A   Overcast
11:35 PM 36.1 °F 28.2 °F 29.7 °F 77% 30.01 in 10.0 mi WNW 11.5 mph 16.1 mph N/A   Mostly Cloudy
11:55 PM 36.1 °F 28.7 °F 29.7 °F 77% 30.03 in 10.0 mi WNW 10.4 mph - N/A   Overcast